﻿_id,日時,10分間移動積算雨量(mm),1時間移動積算雨量(mm),日雨量(mm),累計雨量(mm)
1,2023-03-13T00:00:00,0,0,0,0
2,2023-03-13T00:01:00,0,0,0,0
3,2023-03-13T00:02:00,0,0,0,0
4,2023-03-13T00:03:00,0,0,0,0
5,2023-03-13T00:04:00,0,0,0,0
6,2023-03-13T00:05:00,0.5,0.5,0.5,0.5
7,2023-03-13T00:06:00,0.5,0.5,0.5,0.5
8,2023-03-13T00:07:00,0.5,0.5,0.5,0.5
9,2023-03-13T00:08:00,0.5,0.5,0.5,0.5
10,2023-03-13T00:09:00,0.5,0.5,0.5,0.5
11,2023-03-13T00:10:00,0.5,0.5,0.5,0.5
12,2023-03-13T00:11:00,0.5,0.5,0.5,0.5
13,2023-03-13T00:12:00,0.5,0.5,0.5,0.5
14,2023-03-13T00:13:00,0.5,0.5,0.5,0.5
15,2023-03-13T00:14:00,0.5,0.5,0.5,0.5
16,2023-03-13T00:15:00,0,0.5,0.5,0.5
17,2023-03-13T00:16:00,0,0.5,0.5,0.5
18,2023-03-13T00:17:00,0,0.5,0.5,0.5
19,2023-03-13T00:18:00,0,0.5,0.5,0.5
20,2023-03-13T00:19:00,0,0.5,0.5,0.5
21,2023-03-13T00:20:00,0.5,1,1,1
22,2023-03-13T00:21:00,0.5,1,1,1
23,2023-03-13T00:22:00,0.5,1,1,1
24,2023-03-13T00:23:00,0.5,1,1,1
25,2023-03-13T00:24:00,0.5,1,1,1
26,2023-03-13T00:25:00,0.5,1,1,1
27,2023-03-13T00:26:00,0.5,1,1,1
28,2023-03-13T00:27:00,0.5,1,1,1
29,2023-03-13T00:28:00,0.5,1,1,1
30,2023-03-13T00:29:00,0.5,1,1,1
31,2023-03-13T00:30:00,0,1,1,1
32,2023-03-13T00:31:00,0,1,1,1
33,2023-03-13T00:32:00,0,1,1,1
34,2023-03-13T00:33:00,0,1,1,1
35,2023-03-13T00:34:00,0,1,1,1
36,2023-03-13T00:35:00,0,1,1,1
37,2023-03-13T00:36:00,0,1,1,1
38,2023-03-13T00:37:00,0,1,1,1
39,2023-03-13T00:38:00,0,1,1,1
40,2023-03-13T00:39:00,0,1,1,1
41,2023-03-13T00:40:00,0,1,1,1
42,2023-03-13T00:41:00,0,1,1,1
43,2023-03-13T00:42:00,0,1,1,1
44,2023-03-13T00:43:00,0,1,1,1
45,2023-03-13T00:44:00,0,1,1,1
46,2023-03-13T00:45:00,0,1,1,1
47,2023-03-13T00:46:00,0,1,1,1
48,2023-03-13T00:47:00,0,1,1,1
49,2023-03-13T00:48:00,0,1,1,1
50,2023-03-13T00:49:00,0,1,1,1
51,2023-03-13T00:50:00,0,1,1,1
52,2023-03-13T00:51:00,0,1,1,1
53,2023-03-13T00:52:00,0,1,1,1
54,2023-03-13T00:53:00,0,1,1,1
55,2023-03-13T00:54:00,0,1,1,1
56,2023-03-13T00:55:00,0,1,1,1
57,2023-03-13T00:56:00,0,1,1,1
58,2023-03-13T00:57:00,0,1,1,1
59,2023-03-13T00:58:00,0,1,1,1
60,2023-03-13T00:59:00,0,1,1,1
61,2023-03-13T01:00:00,0,1,1,1
62,2023-03-13T01:01:00,0,1,1,1
63,2023-03-13T01:02:00,0,1,1,1
64,2023-03-13T01:03:00,0,1,1,1
65,2023-03-13T01:04:00,0,1,1,1
66,2023-03-13T01:05:00,0,0.5,1,1
67,2023-03-13T01:06:00,0,0.5,1,1
68,2023-03-13T01:07:00,0,0.5,1,1
69,2023-03-13T01:08:00,0,0.5,1,1
70,2023-03-13T01:09:00,0,0.5,1,1
71,2023-03-13T01:10:00,0,0.5,1,1
72,2023-03-13T01:11:00,0,0.5,1,1
73,2023-03-13T01:12:00,0,0.5,1,1
74,2023-03-13T01:13:00,0,0.5,1,1
75,2023-03-13T01:14:00,0,0.5,1,1
76,2023-03-13T01:15:00,0,0.5,1,1
77,2023-03-13T01:16:00,0,0.5,1,1
78,2023-03-13T01:17:00,0,0.5,1,1
79,2023-03-13T01:18:00,0,0.5,1,1
80,2023-03-13T01:19:00,0,0.5,1,1
81,2023-03-13T01:20:00,0,0,1,1
82,2023-03-13T01:21:00,0,0,1,1
83,2023-03-13T01:22:00,0,0,1,1
84,2023-03-13T01:23:00,0,0,1,1
85,2023-03-13T01:24:00,0,0,1,1
86,2023-03-13T01:25:00,0,0,1,1
87,2023-03-13T01:26:00,0,0,1,1
88,2023-03-13T01:27:00,0,0,1,1
89,2023-03-13T01:28:00,0,0,1,1
90,2023-03-13T01:29:00,0,0,1,1
91,2023-03-13T01:30:00,0,0,1,1
92,2023-03-13T01:31:00,0,0,1,1
93,2023-03-13T01:32:00,0,0,1,1
94,2023-03-13T01:33:00,0,0,1,1
95,2023-03-13T01:34:00,0,0,1,1
96,2023-03-13T01:35:00,0,0,1,1
97,2023-03-13T01:36:00,0,0,1,1
98,2023-03-13T01:37:00,0,0,1,1
99,2023-03-13T01:38:00,0,0,1,1
100,2023-03-13T01:39:00,0,0,1,1
101,2023-03-13T01:40:00,0,0,1,1
102,2023-03-13T01:41:00,0,0,1,1
103,2023-03-13T01:42:00,0,0,1,1
104,2023-03-13T01:43:00,0,0,1,1
105,2023-03-13T01:44:00,0,0,1,1
106,2023-03-13T01:45:00,0,0,1,1
107,2023-03-13T01:46:00,0,0,1,1
108,2023-03-13T01:47:00,0,0,1,1
109,2023-03-13T01:48:00,0,0,1,1
110,2023-03-13T01:49:00,0,0,1,1
111,2023-03-13T01:50:00,0,0,1,1
112,2023-03-13T01:51:00,0,0,1,1
113,2023-03-13T01:52:00,0,0,1,1
114,2023-03-13T01:53:00,0,0,1,1
115,2023-03-13T01:54:00,0,0,1,1
116,2023-03-13T01:55:00,0,0,1,1
117,2023-03-13T01:56:00,0,0,1,1
118,2023-03-13T01:57:00,0,0,1,1
119,2023-03-13T01:58:00,0,0,1,1
120,2023-03-13T01:59:00,0,0,1,1
121,2023-03-13T02:00:00,0,0,1,1
122,2023-03-13T02:01:00,0,0,1,1
123,2023-03-13T02:02:00,0,0,1,1
124,2023-03-13T02:03:00,0,0,1,1
125,2023-03-13T02:04:00,0,0,1,1
126,2023-03-13T02:05:00,0,0,1,1
127,2023-03-13T02:06:00,0,0,1,1
128,2023-03-13T02:07:00,0,0,1,1
129,2023-03-13T02:08:00,0,0,1,1
130,2023-03-13T02:09:00,0,0,1,1
131,2023-03-13T02:10:00,0,0,1,1
132,2023-03-13T02:11:00,0,0,1,1
133,2023-03-13T02:12:00,0,0,1,1
134,2023-03-13T02:13:00,0,0,1,1
135,2023-03-13T02:14:00,0,0,1,1
136,2023-03-13T02:15:00,0,0,1,1
137,2023-03-13T02:16:00,0.5,0.5,1.5,1.5
138,2023-03-13T02:17:00,1,1,2,2
139,2023-03-13T02:18:00,1,1,2,2
140,2023-03-13T02:19:00,1,1,2,2
141,2023-03-13T02:20:00,1.5,1.5,2.5,2.5
142,2023-03-13T02:21:00,2.5,2.5,3.5,3.5
143,2023-03-13T02:22:00,3,3,4,4
144,2023-03-13T02:23:00,3,3,4,4
145,2023-03-13T02:24:00,3.5,3.5,4.5,4.5
146,2023-03-13T02:25:00,3.5,3.5,4.5,4.5
147,2023-03-13T02:26:00,3,3.5,4.5,4.5
148,2023-03-13T02:27:00,2.5,3.5,4.5,4.5
149,2023-03-13T02:28:00,2.5,3.5,4.5,4.5
150,2023-03-13T02:29:00,2.5,3.5,4.5,4.5
151,2023-03-13T02:30:00,2,3.5,4.5,4.5
152,2023-03-13T02:31:00,1.5,4,5,5
153,2023-03-13T02:32:00,1,4,5,5
154,2023-03-13T02:33:00,1,4,5,5
155,2023-03-13T02:34:00,1,4.5,5.5,5.5
156,2023-03-13T02:35:00,1.5,5,6,6
157,2023-03-13T02:36:00,1.5,5,6,6
158,2023-03-13T02:37:00,1.5,5,6,6
159,2023-03-13T02:38:00,2,5.5,6.5,6.5
160,2023-03-13T02:39:00,2,5.5,6.5,6.5
161,2023-03-13T02:40:00,2,5.5,6.5,6.5
162,2023-03-13T02:41:00,1.5,5.5,6.5,6.5
163,2023-03-13T02:42:00,1.5,5.5,6.5,6.5
164,2023-03-13T02:43:00,2,6,7,7
165,2023-03-13T02:44:00,1.5,6,7,7
166,2023-03-13T02:45:00,1,6,7,7
167,2023-03-13T02:46:00,1,6,7,7
168,2023-03-13T02:47:00,1,6,7,7
169,2023-03-13T02:48:00,0.5,6,7,7
170,2023-03-13T02:49:00,0.5,6,7,7
171,2023-03-13T02:50:00,1,6.5,7.5,7.5
172,2023-03-13T02:51:00,1,6.5,7.5,7.5
173,2023-03-13T02:52:00,1,6.5,7.5,7.5
174,2023-03-13T02:53:00,1,7,8,8
175,2023-03-13T02:54:00,1.5,7.5,8.5,8.5
176,2023-03-13T02:55:00,1.5,7.5,8.5,8.5
177,2023-03-13T02:56:00,2,8,9,9
178,2023-03-13T02:57:00,2.5,8.5,9.5,9.5
179,2023-03-13T02:58:00,2.5,8.5,9.5,9.5
180,2023-03-13T02:59:00,3,9,10,10
181,2023-03-13T03:00:00,2.5,9,10,10
182,2023-03-13T03:01:00,3,9.5,10.5,10.5
183,2023-03-13T03:02:00,3.5,10,11,11
184,2023-03-13T03:03:00,3,10,11,11
185,2023-03-13T03:04:00,2.5,10,11,11
186,2023-03-13T03:05:00,3,10.5,11.5,11.5
187,2023-03-13T03:06:00,3,11,12,12
188,2023-03-13T03:07:00,2.5,11,12,12
189,2023-03-13T03:08:00,2.5,11,12,12
190,2023-03-13T03:09:00,2,11,12,12
191,2023-03-13T03:10:00,2.5,11.5,12.5,12.5
192,2023-03-13T03:11:00,2,11.5,12.5,12.5
193,2023-03-13T03:12:00,1.5,11.5,12.5,12.5
194,2023-03-13T03:13:00,1.5,11.5,12.5,12.5
195,2023-03-13T03:14:00,1.5,11.5,12.5,12.5
196,2023-03-13T03:15:00,1,11.5,12.5,12.5
197,2023-03-13T03:16:00,1,11.5,13,13
198,2023-03-13T03:17:00,1,11,13,13
199,2023-03-13T03:18:00,1,11,13,13
200,2023-03-13T03:19:00,1,11,13,13
201,2023-03-13T03:20:00,0.5,10.5,13,13
202,2023-03-13T03:21:00,0.5,9.5,13,13
203,2023-03-13T03:22:00,0.5,9,13,13
204,2023-03-13T03:23:00,0.5,9,13,13
205,2023-03-13T03:24:00,0.5,8.5,13,13
206,2023-03-13T03:25:00,0.5,8.5,13,13
207,2023-03-13T03:26:00,0,8.5,13,13
208,2023-03-13T03:27:00,0.5,9,13.5,13.5
209,2023-03-13T03:28:00,0.5,9,13.5,13.5
210,2023-03-13T03:29:00,0.5,9,13.5,13.5
211,2023-03-13T03:30:00,0.5,9,13.5,13.5
212,2023-03-13T03:31:00,1,9,14,14
213,2023-03-13T03:32:00,1,9,14,14
214,2023-03-13T03:33:00,1,9,14,14
215,2023-03-13T03:34:00,1,8.5,14,14
216,2023-03-13T03:35:00,1,8,14,14
217,2023-03-13T03:36:00,1.5,8.5,14.5,14.5
218,2023-03-13T03:37:00,1,8.5,14.5,14.5
219,2023-03-13T03:38:00,1,8,14.5,14.5
220,2023-03-13T03:39:00,1,8,14.5,14.5
221,2023-03-13T03:40:00,1,8,14.5,14.5
222,2023-03-13T03:41:00,0.5,8,14.5,14.5
223,2023-03-13T03:42:00,1,8.5,15,15
224,2023-03-13T03:43:00,1,8,15,15
225,2023-03-13T03:44:00,1,8,15,15
226,2023-03-13T03:45:00,1,8,15,15
227,2023-03-13T03:46:00,0.5,8,15,15
228,2023-03-13T03:47:00,0.5,8,15,15
229,2023-03-13T03:48:00,0.5,8,15,15
230,2023-03-13T03:49:00,1,8.5,15.5,15.5
231,2023-03-13T03:50:00,1,8,15.5,15.5
232,2023-03-13T03:51:00,1,8,15.5,15.5
233,2023-03-13T03:52:00,0.5,8,15.5,15.5
234,2023-03-13T03:53:00,0.5,7.5,15.5,15.5
235,2023-03-13T03:54:00,0.5,7,15.5,15.5
236,2023-03-13T03:55:00,0.5,7,15.5,15.5
237,2023-03-13T03:56:00,0.5,6.5,15.5,15.5
238,2023-03-13T03:57:00,0.5,6,15.5,15.5
239,2023-03-13T03:58:00,0.5,6,15.5,15.5
240,2023-03-13T03:59:00,0.5,6,16,16
241,2023-03-13T04:00:00,0.5,6,16,16
242,2023-03-13T04:01:00,0.5,5.5,16,16
243,2023-03-13T04:02:00,0.5,5,16,16
244,2023-03-13T04:03:00,0.5,5,16,16
245,2023-03-13T04:04:00,0.5,5,16,16
246,2023-03-13T04:05:00,0.5,4.5,16,16
247,2023-03-13T04:06:00,0.5,4,16,16
248,2023-03-13T04:07:00,0.5,4,16,16
249,2023-03-13T04:08:00,0.5,4,16,16
250,2023-03-13T04:09:00,0,4,16,16
251,2023-03-13T04:10:00,0,3.5,16,16
252,2023-03-13T04:11:00,0,3.5,16,16
253,2023-03-13T04:12:00,0,3.5,16,16
254,2023-03-13T04:13:00,0,3.5,16,16
255,2023-03-13T04:14:00,0.5,4,16.5,16.5
256,2023-03-13T04:15:00,0.5,4,16.5,16.5
257,2023-03-13T04:16:00,0.5,3.5,16.5,16.5
258,2023-03-13T04:17:00,0.5,3.5,16.5,16.5
259,2023-03-13T04:18:00,0.5,3.5,16.5,16.5
260,2023-03-13T04:19:00,0.5,3.5,16.5,16.5
261,2023-03-13T04:20:00,0.5,3.5,16.5,16.5
262,2023-03-13T04:21:00,0.5,3.5,16.5,16.5
263,2023-03-13T04:22:00,0.5,3.5,16.5,16.5
264,2023-03-13T04:23:00,0.5,3.5,16.5,16.5
265,2023-03-13T04:24:00,0,3.5,16.5,16.5
266,2023-03-13T04:25:00,0.5,4,17,17
267,2023-03-13T04:26:00,0.5,4,17,17
268,2023-03-13T04:27:00,0.5,3.5,17,17
269,2023-03-13T04:28:00,0.5,3.5,17,17
270,2023-03-13T04:29:00,0.5,3.5,17,17
271,2023-03-13T04:30:00,0.5,3.5,17,17
272,2023-03-13T04:31:00,0.5,3,17,17
273,2023-03-13T04:32:00,1,3.5,17.5,17.5
274,2023-03-13T04:33:00,1,3.5,17.5,17.5
275,2023-03-13T04:34:00,1,3.5,17.5,17.5
276,2023-03-13T04:35:00,0.5,3.5,17.5,17.5
277,2023-03-13T04:36:00,0.5,3,17.5,17.5
278,2023-03-13T04:37:00,0.5,3,17.5,17.5
279,2023-03-13T04:38:00,0.5,3,17.5,17.5
280,2023-03-13T04:39:00,0.5,3,17.5,17.5
281,2023-03-13T04:40:00,1,3.5,18,18
282,2023-03-13T04:41:00,1,3.5,18,18
283,2023-03-13T04:42:00,0.5,3,18,18
284,2023-03-13T04:43:00,0.5,3,18,18
285,2023-03-13T04:44:00,0.5,3,18,18
286,2023-03-13T04:45:00,0.5,3,18,18
287,2023-03-13T04:46:00,0.5,3,18,18
288,2023-03-13T04:47:00,0.5,3,18,18
289,2023-03-13T04:48:00,0.5,3,18,18
290,2023-03-13T04:49:00,0.5,2.5,18,18
291,2023-03-13T04:50:00,0,2.5,18,18
292,2023-03-13T04:51:00,0,2.5,18,18
293,2023-03-13T04:52:00,0,2.5,18,18
294,2023-03-13T04:53:00,0,2.5,18,18
295,2023-03-13T04:54:00,0,2.5,18,18
296,2023-03-13T04:55:00,0,2.5,18,18
297,2023-03-13T04:56:00,0,2.5,18,18
298,2023-03-13T04:57:00,0,2.5,18,18
299,2023-03-13T04:58:00,0,2.5,18,18
300,2023-03-13T04:59:00,0,2,18,18
301,2023-03-13T05:00:00,0,2,18,18
302,2023-03-13T05:01:00,0,2,18,18
303,2023-03-13T05:02:00,0,2,18,18
304,2023-03-13T05:03:00,0,2,18,18
305,2023-03-13T05:04:00,0,2,18,18
306,2023-03-13T05:05:00,0,2,18,18
307,2023-03-13T05:06:00,0,2,18,18
308,2023-03-13T05:07:00,,,,
309,2023-03-13T05:08:00,0,2,18,18
310,2023-03-13T05:09:00,0,2,18,18
311,2023-03-13T05:10:00,0,2,18,18
312,2023-03-13T05:11:00,0,2,18,18
313,2023-03-13T05:12:00,0,2,18,18
314,2023-03-13T05:13:00,0,2,18,18
315,2023-03-13T05:14:00,0,1.5,18,18
316,2023-03-13T05:15:00,0,1.5,18,18
317,2023-03-13T05:16:00,0,1.5,18,18
318,2023-03-13T05:17:00,0,1.5,18,18
319,2023-03-13T05:18:00,0,1.5,18,18
320,2023-03-13T05:19:00,0,1.5,18,18
321,2023-03-13T05:20:00,0,1.5,18,18
322,2023-03-13T05:21:00,0,1.5,18,18
323,2023-03-13T05:22:00,0,1.5,18,18
324,2023-03-13T05:23:00,0,1.5,18,18
325,2023-03-13T05:24:00,0,1.5,18,18
326,2023-03-13T05:25:00,0,1,18,18
327,2023-03-13T05:26:00,0,1,18,18
328,2023-03-13T05:27:00,0,1,18,18
329,2023-03-13T05:28:00,0,1,18,18
330,2023-03-13T05:29:00,0,1,18,18
331,2023-03-13T05:30:00,0,1,18,18
332,2023-03-13T05:31:00,0,1,18,18
333,2023-03-13T05:32:00,0,0.5,18,18
334,2023-03-13T05:33:00,0,0.5,18,18
335,2023-03-13T05:34:00,0,0.5,18,18
336,2023-03-13T05:35:00,0,0.5,18,18
337,2023-03-13T05:36:00,0,0.5,18,18
338,2023-03-13T05:37:00,0,0.5,18,18
339,2023-03-13T05:38:00,0,0.5,18,18
340,2023-03-13T05:39:00,0,0.5,18,18
341,2023-03-13T05:40:00,0,0,18,18
342,2023-03-13T05:41:00,0,0,18,18
343,2023-03-13T05:42:00,0,0,18,18
344,2023-03-13T05:43:00,0,0,18,18
345,2023-03-13T05:44:00,0,0,18,18
346,2023-03-13T05:45:00,0,0,18,18
347,2023-03-13T05:46:00,0,0,18,18
348,2023-03-13T05:47:00,0,0,18,18
349,2023-03-13T05:48:00,0,0,18,18
350,2023-03-13T05:49:00,0,0,18,18
351,2023-03-13T05:50:00,0,0,18,18
352,2023-03-13T05:51:00,0,0,18,18
353,2023-03-13T05:52:00,0,0,18,18
354,2023-03-13T05:53:00,0,0,18,18
355,2023-03-13T05:54:00,0,0,18,18
356,2023-03-13T05:55:00,0,0,18,18
357,2023-03-13T05:56:00,0,0,18,18
358,2023-03-13T05:57:00,0,0,18,18
359,2023-03-13T05:58:00,0,0,18,18
360,2023-03-13T05:59:00,0,0,18,18
361,2023-03-13T06:00:00,0,0,18,18
362,2023-03-13T06:01:00,0,0,18,18
363,2023-03-13T06:02:00,0,0,18,18
364,2023-03-13T06:03:00,0,0,18,18
365,2023-03-13T06:04:00,0,0,18,18
366,2023-03-13T06:05:00,0,0,18,18
367,2023-03-13T06:06:00,0,0,18,18
368,2023-03-13T06:07:00,0,0,18,18
369,2023-03-13T06:08:00,0,0,18,18
370,2023-03-13T06:09:00,0,0,18,18
371,2023-03-13T06:10:00,0,0,18,18
372,2023-03-13T06:11:00,0,0,18,18
373,2023-03-13T06:12:00,0,0,18,18
374,2023-03-13T06:13:00,0,0,18,18
375,2023-03-13T06:14:00,0,0,18,18
376,2023-03-13T06:15:00,0,0,18,18
377,2023-03-13T06:16:00,0,0,18,18
378,2023-03-13T06:17:00,0,0,18,18
379,2023-03-13T06:18:00,0,0,18,18
380,2023-03-13T06:19:00,0,0,18,18
381,2023-03-13T06:20:00,0,0,18,18
382,2023-03-13T06:21:00,0,0,18,18
383,2023-03-13T06:22:00,0,0,18,18
384,2023-03-13T06:23:00,0,0,18,18
385,2023-03-13T06:24:00,0,0,18,18
386,2023-03-13T06:25:00,0,0,18,18
387,2023-03-13T06:26:00,0,0,18,18
388,2023-03-13T06:27:00,0,0,18,18
389,2023-03-13T06:28:00,0,0,18,18
390,2023-03-13T06:29:00,0,0,18,18
391,2023-03-13T06:30:00,0,0,18,18
392,2023-03-13T06:31:00,0,0,18,18
393,2023-03-13T06:32:00,0,0,18,18
394,2023-03-13T06:33:00,0,0,18,18
395,2023-03-13T06:34:00,0,0,18,18
396,2023-03-13T06:35:00,0,0,18,18
397,2023-03-13T06:36:00,0,0,18,18
398,2023-03-13T06:37:00,0,0,18,18
399,2023-03-13T06:38:00,0,0,18,18
400,2023-03-13T06:39:00,0,0,18,18
401,2023-03-13T06:40:00,0,0,18,18
402,2023-03-13T06:41:00,0,0,18,18
403,2023-03-13T06:42:00,0,0,18,18
404,2023-03-13T06:43:00,0,0,18,18
405,2023-03-13T06:44:00,0,0,18,18
406,2023-03-13T06:45:00,0,0,18,18
407,2023-03-13T06:46:00,0,0,18,18
408,2023-03-13T06:47:00,0,0,18,18
409,2023-03-13T06:48:00,0,0,18,18
410,2023-03-13T06:49:00,0,0,18,18
411,2023-03-13T06:50:00,0,0,18,18
412,2023-03-13T06:51:00,0,0,18,18
413,2023-03-13T06:52:00,0,0,18,18
414,2023-03-13T06:53:00,0,0,18,18
415,2023-03-13T06:54:00,0,0,18,18
416,2023-03-13T06:55:00,0,0,18,18
417,2023-03-13T06:56:00,0,0,18,18
418,2023-03-13T06:57:00,0,0,18,18
419,2023-03-13T06:58:00,0,0,18,18
420,2023-03-13T06:59:00,0,0,18,18
421,2023-03-13T07:00:00,0,0,18,18
422,2023-03-13T07:01:00,0,0,18,18
423,2023-03-13T07:02:00,0,0,18,18
424,2023-03-13T07:03:00,0,0,18,18
425,2023-03-13T07:04:00,0,0,18,18
426,2023-03-13T07:05:00,0,0,18,18
427,2023-03-13T07:06:00,0,0,18,18
428,2023-03-13T07:07:00,0,0,18,18
429,2023-03-13T07:08:00,0,0,18,18
430,2023-03-13T07:09:00,0,0,18,18
431,2023-03-13T07:10:00,0,0,18,18
432,2023-03-13T07:11:00,0,0,18,18
433,2023-03-13T07:12:00,0,0,18,18
434,2023-03-13T07:13:00,0,0,18,18
435,2023-03-13T07:14:00,0,0,18,18
436,2023-03-13T07:15:00,0,0,18,18
437,2023-03-13T07:16:00,0,0,18,18
438,2023-03-13T07:17:00,0,0,18,18
439,2023-03-13T07:18:00,0,0,18,18
440,2023-03-13T07:19:00,,,,
441,2023-03-13T07:20:00,0,0,18,18
442,2023-03-13T07:21:00,0,0,18,18
443,2023-03-13T07:22:00,0,0,18,18
444,2023-03-13T07:23:00,0,0,18,18
445,2023-03-13T07:24:00,0,0,18,18
446,2023-03-13T07:25:00,0,0,18,18
447,2023-03-13T07:26:00,0,0,18,18
448,2023-03-13T07:27:00,0,0,18,18
449,2023-03-13T07:28:00,0,0,18,18
450,2023-03-13T07:29:00,0,0,18,18
451,2023-03-13T07:30:00,0,0,18,18
452,2023-03-13T07:31:00,0,0,18,18
453,2023-03-13T07:32:00,0,0,18,18
454,2023-03-13T07:33:00,0,0,18,18
455,2023-03-13T07:34:00,0,0,18,18
456,2023-03-13T07:35:00,0,0,18,18
457,2023-03-13T07:36:00,0,0,18,18
458,2023-03-13T07:37:00,0,0,18,18
459,2023-03-13T07:38:00,0,0,18,18
460,2023-03-13T07:39:00,0,0,18,18
461,2023-03-13T07:40:00,0,0,18,18
462,2023-03-13T07:41:00,0,0,18,18
463,2023-03-13T07:42:00,0,0,18,18
464,2023-03-13T07:43:00,0,0,18,18
465,2023-03-13T07:44:00,0,0,18,18
466,2023-03-13T07:45:00,0,0,18,18
467,2023-03-13T07:46:00,0,0,18,18
468,2023-03-13T07:47:00,0,0,18,18
469,2023-03-13T07:48:00,0,0,18,18
470,2023-03-13T07:49:00,0,0,18,18
471,2023-03-13T07:50:00,0,0,18,18
472,2023-03-13T07:51:00,0,0,18,18
473,2023-03-13T07:52:00,0,0,18,18
474,2023-03-13T07:53:00,0,0,18,18
475,2023-03-13T07:54:00,0,0,18,18
476,2023-03-13T07:55:00,0,0,18,18
477,2023-03-13T07:56:00,0,0,18,18
478,2023-03-13T07:57:00,0,0,18,18
479,2023-03-13T07:58:00,0,0,18,18
480,2023-03-13T07:59:00,0,0,18,18
481,2023-03-13T08:00:00,0,0,18,18
482,2023-03-13T08:01:00,0,0,18,18
483,2023-03-13T08:02:00,0,0,18,18
484,2023-03-13T08:03:00,0,0,18,18
485,2023-03-13T08:04:00,0,0,18,18
486,2023-03-13T08:05:00,0,0,18,18
487,2023-03-13T08:06:00,0,0,18,18
488,2023-03-13T08:07:00,0,0,18,18
489,2023-03-13T08:08:00,0,0,18,18
490,2023-03-13T08:09:00,0,0,18,18
491,2023-03-13T08:10:00,0,0,18,18
492,2023-03-13T08:11:00,0,0,18,18
493,2023-03-13T08:12:00,0,0,18,18
494,2023-03-13T08:13:00,0,0,18,18
495,2023-03-13T08:14:00,0,0,18,18
496,2023-03-13T08:15:00,0,0,18,18
497,2023-03-13T08:16:00,0,0,18,18
498,2023-03-13T08:17:00,0,0,18,18
499,2023-03-13T08:18:00,0,0,18,18
500,2023-03-13T08:19:00,0,0,18,18
501,2023-03-13T08:20:00,0,0,18,18
502,2023-03-13T08:21:00,0,0,18,18
503,2023-03-13T08:22:00,0,0,18,18
504,2023-03-13T08:23:00,0,0,18,18
505,2023-03-13T08:24:00,0,0,18,18
506,2023-03-13T08:25:00,0,0,18,18
507,2023-03-13T08:26:00,0,0,18,18
508,2023-03-13T08:27:00,0,0,18,18
509,2023-03-13T08:28:00,0,0,18,18
510,2023-03-13T08:29:00,0,0,18,18
511,2023-03-13T08:30:00,0,0,18,18
512,2023-03-13T08:31:00,0,0,18,18
513,2023-03-13T08:32:00,0,0,18,18
514,2023-03-13T08:33:00,0,0,18,18
515,2023-03-13T08:34:00,0,0,18,18
516,2023-03-13T08:35:00,0,0,18,18
517,2023-03-13T08:36:00,0,0,18,18
518,2023-03-13T08:37:00,0,0,18,18
519,2023-03-13T08:38:00,0,0,18,18
520,2023-03-13T08:39:00,0,0,18,18
521,2023-03-13T08:40:00,0,0,18,18
522,2023-03-13T08:41:00,0,0,18,18
523,2023-03-13T08:42:00,0,0,18,18
524,2023-03-13T08:43:00,0,0,18,18
525,2023-03-13T08:44:00,0,0,18,18
526,2023-03-13T08:45:00,0,0,18,18
527,2023-03-13T08:46:00,0,0,18,18
528,2023-03-13T08:47:00,0,0,18,18
529,2023-03-13T08:48:00,0,0,18,18
530,2023-03-13T08:49:00,0,0,18,18
531,2023-03-13T08:50:00,0,0,18,18
532,2023-03-13T08:51:00,0,0,18,18
533,2023-03-13T08:52:00,0,0,18,18
534,2023-03-13T08:53:00,0,0,18,18
535,2023-03-13T08:54:00,0,0,18,18
536,2023-03-13T08:55:00,0,0,18,18
537,2023-03-13T08:56:00,0,0,18,18
538,2023-03-13T08:57:00,0,0,18,18
539,2023-03-13T08:58:00,0,0,18,18
540,2023-03-13T08:59:00,0,0,18,18
541,2023-03-13T09:00:00,0,0,18,18
542,2023-03-13T09:01:00,0,0,18,18
543,2023-03-13T09:02:00,0,0,18,18
544,2023-03-13T09:03:00,0,0,18,18
545,2023-03-13T09:04:00,0,0,18,18
546,2023-03-13T09:05:00,0,0,18,18
547,2023-03-13T09:06:00,0,0,18,18
548,2023-03-13T09:07:00,0,0,18,18
549,2023-03-13T09:08:00,0,0,18,18
550,2023-03-13T09:09:00,0,0,18,18
551,2023-03-13T09:10:00,0,0,18,18
552,2023-03-13T09:11:00,0,0,18,18
553,2023-03-13T09:12:00,0,0,18,18
554,2023-03-13T09:13:00,0,0,18,18
555,2023-03-13T09:14:00,0,0,18,18
556,2023-03-13T09:15:00,0,0,18,18
557,2023-03-13T09:16:00,0,0,18,18
558,2023-03-13T09:17:00,0,0,18,18
559,2023-03-13T09:18:00,0,0,18,18
560,2023-03-13T09:19:00,0,0,18,18
561,2023-03-13T09:20:00,0,0,18,18
562,2023-03-13T09:21:00,0,0,18,18
563,2023-03-13T09:22:00,0,0,18,18
564,2023-03-13T09:23:00,0,0,18,18
565,2023-03-13T09:24:00,0,0,18,18
566,2023-03-13T09:25:00,0,0,18,18
567,2023-03-13T09:26:00,0,0,18,18
568,2023-03-13T09:27:00,0,0,18,18
569,2023-03-13T09:28:00,0,0,18,18
570,2023-03-13T09:29:00,0,0,18,18
571,2023-03-13T09:30:00,0,0,18,18
572,2023-03-13T09:31:00,0,0,18,18
573,2023-03-13T09:32:00,0,0,18,18
574,2023-03-13T09:33:00,0,0,18,18
575,2023-03-13T09:34:00,0,0,18,18
576,2023-03-13T09:35:00,0,0,18,18
577,2023-03-13T09:36:00,0,0,18,18
578,2023-03-13T09:37:00,0,0,18,18
579,2023-03-13T09:38:00,0,0,18,18
580,2023-03-13T09:39:00,0,0,18,18
581,2023-03-13T09:40:00,0,0,18,18
582,2023-03-13T09:41:00,0,0,18,18
583,2023-03-13T09:42:00,0,0,18,18
584,2023-03-13T09:43:00,0,0,18,18
585,2023-03-13T09:44:00,0,0,18,18
586,2023-03-13T09:45:00,0,0,18,18
587,2023-03-13T09:46:00,0,0,18,18
588,2023-03-13T09:47:00,0,0,18,18
589,2023-03-13T09:48:00,0,0,18,18
590,2023-03-13T09:49:00,0,0,18,18
591,2023-03-13T09:50:00,0,0,18,18
592,2023-03-13T09:51:00,0,0,18,18
593,2023-03-13T09:52:00,0,0,18,18
594,2023-03-13T09:53:00,0,0,18,18
595,2023-03-13T09:54:00,0,0,18,18
596,2023-03-13T09:55:00,0,0,18,18
597,2023-03-13T09:56:00,0,0,18,18
598,2023-03-13T09:57:00,0,0,18,18
599,2023-03-13T09:58:00,0,0,18,18
600,2023-03-13T09:59:00,0,0,18,18
601,2023-03-13T10:00:00,0,0,18,18
602,2023-03-13T10:01:00,0,0,18,18
603,2023-03-13T10:02:00,0,0,18,18
604,2023-03-13T10:03:00,0,0,18,18
605,2023-03-13T10:04:00,0,0,18,18
606,2023-03-13T10:05:00,0,0,18,18
607,2023-03-13T10:06:00,0,0,18,18
608,2023-03-13T10:07:00,0,0,18,18
609,2023-03-13T10:08:00,0,0,18,18
610,2023-03-13T10:09:00,0,0,18,18
611,2023-03-13T10:10:00,0,0,18,18
612,2023-03-13T10:11:00,0,0,18,18
613,2023-03-13T10:12:00,0,0,18,18
614,2023-03-13T10:13:00,0,0,18,18
615,2023-03-13T10:14:00,0,0,18,18
616,2023-03-13T10:15:00,0,0,18,18
617,2023-03-13T10:16:00,0,0,18,18
618,2023-03-13T10:17:00,0,0,18,18
619,2023-03-13T10:18:00,0,0,18,18
620,2023-03-13T10:19:00,0,0,18,18
621,2023-03-13T10:20:00,0,0,18,18
622,2023-03-13T10:21:00,0,0,18,18
623,2023-03-13T10:22:00,0,0,18,18
624,2023-03-13T10:23:00,0,0,18,18
625,2023-03-13T10:24:00,0,0,18,18
626,2023-03-13T10:25:00,0,0,18,18
627,2023-03-13T10:26:00,0,0,18,18
628,2023-03-13T10:27:00,0,0,18,18
629,2023-03-13T10:28:00,0,0,18,18
630,2023-03-13T10:29:00,0,0,18,18
631,2023-03-13T10:30:00,0,0,18,18
632,2023-03-13T10:31:00,0,0,18,18
633,2023-03-13T10:32:00,0,0,18,18
634,2023-03-13T10:33:00,0,0,18,18
635,2023-03-13T10:34:00,0,0,18,18
636,2023-03-13T10:35:00,0,0,18,18
637,2023-03-13T10:36:00,0,0,18,18
638,2023-03-13T10:37:00,0,0,18,18
639,2023-03-13T10:38:00,0,0,18,18
640,2023-03-13T10:39:00,0,0,18,18
641,2023-03-13T10:40:00,0,0,18,18
642,2023-03-13T10:41:00,0,0,18,18
643,2023-03-13T10:42:00,0,0,18,18
644,2023-03-13T10:43:00,0,0,18,18
645,2023-03-13T10:44:00,0,0,18,18
646,2023-03-13T10:45:00,0,0,18,18
647,2023-03-13T10:46:00,0,0,18,18
648,2023-03-13T10:47:00,0,0,18,18
649,2023-03-13T10:48:00,0,0,18,18
650,2023-03-13T10:49:00,0,0,18,18
651,2023-03-13T10:50:00,0,0,18,18
652,2023-03-13T10:51:00,0,0,18,18
653,2023-03-13T10:52:00,0,0,18,18
654,2023-03-13T10:53:00,0,0,18,18
655,2023-03-13T10:54:00,0,0,18,18
656,2023-03-13T10:55:00,0,0,18,18
657,2023-03-13T10:56:00,0,0,18,18
658,2023-03-13T10:57:00,0,0,18,18
659,2023-03-13T10:58:00,0,0,18,18
660,2023-03-13T10:59:00,0,0,18,18
661,2023-03-13T11:00:00,0,0,18,18
662,2023-03-13T11:01:00,0,0,18,18
663,2023-03-13T11:02:00,0,0,18,18
664,2023-03-13T11:03:00,0,0,18,18
665,2023-03-13T11:04:00,0,0,18,18
666,2023-03-13T11:05:00,0,0,18,18
667,2023-03-13T11:06:00,0,0,18,18
668,2023-03-13T11:07:00,0,0,18,18
669,2023-03-13T11:08:00,0,0,18,18
670,2023-03-13T11:09:00,0,0,18,18
671,2023-03-13T11:10:00,0,0,18,18
672,2023-03-13T11:11:00,0,0,18,18
673,2023-03-13T11:12:00,0,0,18,18
674,2023-03-13T11:13:00,0,0,18,18
675,2023-03-13T11:14:00,0,0,18,18
676,2023-03-13T11:15:00,0,0,18,18
677,2023-03-13T11:16:00,0,0,18,18
678,2023-03-13T11:17:00,0,0,18,18
679,2023-03-13T11:18:00,0,0,18,18
680,2023-03-13T11:19:00,0,0,18,18
681,2023-03-13T11:20:00,0,0,18,18
682,2023-03-13T11:21:00,0,0,18,18
683,2023-03-13T11:22:00,0,0,18,18
684,2023-03-13T11:23:00,0,0,18,18
685,2023-03-13T11:24:00,0,0,18,18
686,2023-03-13T11:25:00,0,0,18,18
687,2023-03-13T11:26:00,0,0,18,18
688,2023-03-13T11:27:00,0,0,18,18
689,2023-03-13T11:28:00,0,0,18,18
690,2023-03-13T11:29:00,0,0,18,18
691,2023-03-13T11:30:00,0,0,18,18
692,2023-03-13T11:31:00,0,0,18,18
693,2023-03-13T11:32:00,0,0,18,18